Home   Weather   Ontario   Past weeks

Flag for USA Past Weather in Ontario, California, USA — Yesterday and Last 2 Weeks

Now
52 °F

Mostly cloudy.


Feels Like: 50 °F
Forecast: 48 / 56 °F
Wind: 6 mph from West

Location: Ontario International Airport

Current Time: Jan 18, 2017 at 8:54:54 pm

Latest Report: Jan 18, 2017 at 7:53 pm


Visibility: 10 mi

Pressure: 30.12 "Hg

Humidity: 77%

Dew Point: 45 °F

Location of OntarioLocation

Past Weather in Ontario — Graph

°F

Ontario Temperature Yesterday

Maximum temperature yesterday: 64 °F (at 12:53 pm)
Minimum temperature yesterday: 41 °F (at 5:53 am)
Average temperature yesterday: 53 °F

High & Low Weather Summary for the Past Weeks

 TemperatureHumidityPressure
High74 °F (Jan 8, 1:53 pm)100% (Jan 5, 12:14 am)30.22 "Hg (Jan 5, 12:14 am)
Low40 °F (Jan 18, 5:53 am)16% (Jan 16, 10:53 pm)29.91 "Hg (Jan 5, 4:53 pm)
Average54 °F79%30.06 "Hg
* Reported Jan 3 6:53 pm — Jan 18 6:53 pm, Ontario, Weather by CustomWeather, © 2017

Note: Actual official high and low records may vary slightly from our data, if they occured in-between our weather recording intervals... More about our weather records

Advertising

Ontario Weather History for the Previous 24 Hours

Scroll right to see more
 ConditionsComfort  
Time TempWeatherWind HumidityBarometerVisibility
6:53 pm
Wed, Jan 18
53 °FMostly cloudy.12 mph74%30.14 "Hg10 mi
5:53 pm53 °FMostly cloudy.10 mph77%30.12 "Hg10 mi
4:53 pm55 °FMostly cloudy.10 mph72%30.11 "Hg10 mi
3:53 pm56 °FCloudy.14 mph70%30.10 "Hg9 mi
2:53 pm57 °FMore clouds than sun.10 mph67%30.09 "Hg10 mi
1:53 pm58 °FOvercast.12 mph65%30.09 "Hg10 mi
12:53 pm58 °FPartly sunny.6 mph60%30.09 "Hg10 mi
11:53 am57 °FPartly sunny.3 mph58%30.13 "Hg10 mi
10:53 am53 °FScattered clouds.No wind66%30.18 "Hg10 mi
9:53 am51 °FScattered clouds.3 mph66%30.20 "Hg10 mi
8:53 am50 °FPassing clouds.No wind57%30.20 "Hg10 mi
7:53 am45 °FPassing clouds.No wind71%30.19 "Hg10 mi
6:53 am42 °FPassing clouds.No wind71%30.17 "Hg10 mi
5:53 am40 °FPassing clouds.No wind70%30.15 "Hg10 mi
4:53 am42 °FPassing clouds.No wind65%30.15 "Hg10 mi
3:53 am43 °FPassing clouds.5 mph65%30.14 "Hg10 mi
2:53 am44 °FPassing clouds.3 mph71%30.15 "Hg10 mi
1:53 am44 °FPassing clouds.3 mph73%30.15 "Hg10 mi
12:53 am47 °FPassing clouds.No wind69%30.15 "Hg10 mi
11:53 pm
Tue, Jan 17
43 °FPassing clouds.No wind76%30.17 "Hg10 mi
10:53 pm48 °FPassing clouds.3 mph71%30.16 "Hg10 mi
9:53 pm50 °FPassing clouds.5 mph68%30.14 "Hg10 mi
8:53 pm50 °FPassing clouds.No wind66%30.13 "Hg10 mi
Weather by CustomWeather, © 2017

See weather overviewHow to use our weather pages